314  
ASUS43 KMPX 260410  
RWRMN  
WEATHER ROUNDUP FOR MINNESOTA  
NATIONAL WEATHER SERVICE TWIN CITIES/CHANHASSEN MN  
1100 PM CDT FRI MAY 25 2018  
 
NOTE: "FAIR" INDICATES FEW OR NO CLOUDS BELOW 12,000 FEET WITH NO  
SIGNIFICANT WEATHER AND/OR S TO VISIBILITY
. N/A MEANS  
CURRENT SKY AND/OR WEATHER CONDITIONS ARE NOT AVAILABLE.  
 
MNZ060>063-068>070-260500-  
TWIN CITIES METRO  
 
CITY SKY/WX TMP DP RH WIND PRES REMARKS
 
TWIN CITIES FAIR 74 60 61 S7 29.71R  
ST PAUL FAIR 69 61 75 S5 29.70S  
CRYSTAL FAIR 70 59 68 SE6 29.69R  
BLAINE FAIR 70 61 73 S3 29.70S  
LAKEVILLE FAIR 66 63 88 S3 29.73R  
EDEN PRAIRIE FAIR 67 60 78 SE5 29.70R  
SOUTH ST PAUL FAIR 71 60 67 S3 29.71S  
LAKE ELMO FAIR 64 63 94 CALM 29.72S  

 
MNZ001>005-007-008-013>017-022>024-027-028-260500-  
NORTHWEST MINNESOTA  
 
CITY SKY/WX TMP DP RH WIND PRES REMARKS
 
BEMIDJI FAIR 66 53 63 SE3 29.62F  
HALLOCK FAIR 72 55 56 N6 29.57S  
ROSEAU FAIR 64 59 82 S3 29.58S  
WARROAD FAIR 66 61 82 S5 29.58S  
THIEF RVR FALL FAIR 72 57 59 SW3 29.60R  
CROOKSTON FAIR 70 55 60 W8 29.59R  
FOSSTON FAIR 68 52 56 S5 29.62R  
DETROIT LAKES FAIR 72 55 56 CALM 29.65S  
MOORHEAD FAIR 79 46 31 SW6 29.61S  
PARK RAPIDS FAIR 72 55 55 CALM 29.64S  
MAHNOMEN FAIR 70 54 56 S9 29.61S  

 
MNZ006-009>011-018-025>026-260500-  
NORTH CENTRAL MINNESOTA  
 
CITY SKY/WX TMP DP RH WIND PRES REMARKS
 
BAUDETTE N/A N/A N/A N/A MISG 29.58F  
FLAG ISLAND FAIR 64 57 77 E10 29.56F  
INTL FALLS MOCLDY 68 60 75 N5 29.60S  
WASKISH FAIR 70 55 60 CALM 29.59F  
BIG FORK FAIR 68 57 68 E5 29.61F  
LONGVILLE FAIR 63 59 88 CALM 29.64F  
GRAND RAPIDS FAIR 68 57 68 S5 29.66S  
CRANE LAKE MOCLDY 61 57 88 SW3 29.65R  
ORR FAIR 68 54 60 CALM 29.61R  
COOK FAIR 64 57 77 CALM 29.63S  
WALKER FAIR 64 55 71 CALM 29.63F  

 
MNZ012-019>021-037-260500-  
NORTHEAST MINNESOTA  
 
CITY SKY/WX TMP DP RH WIND PRES REMARKS
 
DULUTH FAIR 70 60 70 CALM 29.66R  
ELY FAIR 66 55 68 CALM 29.63F  
HIBBING FAIR 58 54 86 CALM 29.64S  
EVELETH FAIR 61 57 88 CALM 29.65F  
DULUTH HARBOR FAIR 72 64 78 W3 29.63S  
TWO HARBORS FAIR 64 59 82 CALM 29.62S  
SILVER BAY FAIR 63 61 94 CALM 29.62S  
GRAND MARAIS N/A 47 46 97 SW3 29.61R  
G MARAIS ARPRT FAIR 61 55 82 CALM 29.66S  

 
MNZ029>031-032-039>041-046>048-054>057-064-260500-  
WEST CENTRAL MINNESOTA  
 
CITY SKY/WX TMP DP RH WIND PRES REMARKS
 
FERGUS FALLS FAIR 73 52 46 S5 29.60S  
WHEATON CLEAR 73 55 53 SW7 29.67F  
MORRIS CLEAR 72 52 49 W7 29.67S  
ALEXANDRIA FAIR 72 61 68 SW5 29.69R  
ELBOW LAKE FAIR 74 48 39 W6 29.67S  
WADENA FAIR 66 57 72 CALM 29.65F  
GLENWOOD FAIR 70 61 73 SW6 29.67S  
BENSON CLEAR 73 57 56 W8 29.69S  
ORTONVILLE CLEAR 75 54 46 W6 29.68F  
MADISON CLEAR 73 61 64 SW6 29.69S  
WILLMAR FAIR 72 59 64 CALM 29.72S  

 
MNZ033>034-036-042>043-049>051-058-059-260500-  
CENTRAL MINNESOTA  
 
CITY SKY/WX TMP DP RH WIND PRES REMARKS
 
ST CLOUD FAIR 68 59 73 S3 29.68R  
SAUK CENTRE FAIR 67 57 70 S6 29.68S  
PAYNESVILLE FAIR 71 58 64 S5 29.70R  
AITKIN FAIR 70 57 64 SW3 29.64F  
PINE RIVER FAIR 63 55 77 CALM 29.69S  
BRAINERD FAIR 68 55 63 S5 29.65F  
STAPLES FAIR 66 55 68 S5 29.66S  
LONG PRAIRIE FAIR 66 61 82 SE3 29.68S  
LITTLE FALLS FAIR 70 59 68 S3 29.68R  
LITCHFIELD FAIR 72 59 64 MISG 29.71S  
BUFFALO FAIR 69 58 67 S3 29.71R  
MAPLE LAKE FAIR 69 61 76 S3 29.71R  
HUTCHINSON FAIR 71 60 67 S5 29.72S  

 
MNZ037-044-045-052-053-260500-  
EAST CENTRAL MINNESOTA  
 
CITY SKY/WX TMP DP RH WIND PRES REMARKS
 
PRINCETON FAIR 70 63 78 CALM 29.69R  
MORA FAIR 68 55 64 CALM 29.69S  
CAMBRIDGE FAIR 72 57 60 SE6 29.69R  
RUSH CITY FAIR 69 61 77 S6 29.69R  
MOOSE LAKE FAIR 63 59 88 CALM 29.65S  
HINCKLEY FAIR 70 61 73 CALM 29.68R  
CLOQUET FAIR 66 59 77 SW5 29.66S  
MCGREGOR FAIR 72 59 64 S3 29.65F  

 
MNZ071>073-080-081-089-090-097-098-260500-  
SOUTHWEST MINNESOTA  
 
CITY SKY/WX TMP DP RH WIND PRES REMARKS
 
MONTEVIDEO CLEAR 73 61 64 SW9 29.69S  
CANBY CLEAR 71 60 68 SW6 29.72R  
MARSHALL CLEAR 70 61 73 SW8 29.72R  
REDWOOD FALLS CLEAR 68 62 81 S8 29.70R  
OLIVIA CLEAR 68 63 83 S5 29.70S  
PIPESTONE CLEAR 72 61 68 W6 29.76S  
WINDOM CLEAR 70 52 52 CALM 29.75R  
WORTHINGTON CLEAR 68 59 73 S5 29.77R  
JACKSON CLEAR 68 61 77 CALM 29.76S  
TRACY CLEAR 73 60 65 SW8 29.73R  
SLAYTON RAIN 72 57 60 SW9 29.76R  

 
MNZ065>067-074>077-082>085-091>093-260500-  
SOUTH CENTRAL MINNESOTA  
 
CITY SKY/WX TMP DP RH WIND PRES REMARKS
 
MANKATO FAIR 68 62 81 S9 29.74R  
NEW ULM CLEAR 66 59 77 SE6 29.72S  
ST JAMES PTCLDY 66 61 82 SE8 29.74R  
FAIRMONT CLEAR 70 60 70 SE7 29.76R  
GLENCOE FAIR 69 61 76 S5 29.72R  
FARIBAULT FAIR 64 63 94 CALM 29.74S  
OWATONNA FAIR 66 61 82 S12 29.75R  
WASECA FAIR 63 59 88 SE7 29.76R  
ALBERT LEA FAIR 66 57 72 SE9 29.77S  

 
MNZ078>079-086>088-094>096-260500-  
SOUTHEAST MINNESOTA  
 
CITY SKY/WX TMP DP RH WIND PRES REMARKS
 
ROCHESTER FAIR 65 63 93 S14 29.77F  
RED WING FAIR 70 59 68 SE3 29.71S  
STANTON FAIR 67 62 82 SW3 29.72S  
DODGE CENTER FAIR 64 61 88 SE12 29.77R  
WINONA LGT RAIN 66 63 88 SW6G16 29.71F  
AUSTIN FAIR 66 61 82 SE7 29.77F  
PRESTON FAIR 62 59 89 SE7 29.80F  

 
ABBREVIATIONS USED IN REMARKS  
TC - TEMPERATURES IN CELSIUS  
WCI - WIND CHILL INDEX  
HX - HEAT INDEX  
VSB - VISIBILITY  

 
 
 
CLICK HERE TO GO TO PREVIOUS BULLETINS.

The Nexlab MN Page Main Text Page